Flag for Algeria

Past Weather in Constantine, Algeria — Yesterday and Last 2 Weeks

Now
64 °F

Clear.


Feels Like: 64 °F
Forecast: 88 / 58 °F
Wind: 1 mph from North

Location: Constantine Airport
Current Time: Oct 1, 2020 at 9:27:51 pm
Latest Report: Oct 1, 2020 at 8:00 pm
Visibility: 10 mi
Pressure29.92 "Hg(28.03 "Hg at 557m altitude)
Humidity: 78%
Dew Point: 57 °F
Location of ConstantineLocation

Past Weather in Constantine — Graph

°F

Constantine Temperature Yesterday

Maximum temperature yesterday: 88 °F (at 1:00 pm)
Minimum temperature yesterday: 61 °F (at 3:00 am)
Average temperature yesterday: 72 °F

High & Low Weather Summary for the Past Weeks

 TemperatureHumidityPressure
High95 °F (Sep 24, 2:00 pm)100% (Sep 23, 6:00 am)30.24 "Hg (Sep 23, 6:00 am)
Low46 °F (Sep 28, 5:00 am)17% (Sep 24, 1:00 pm)29.86 "Hg (Sep 27, 5:00 am)
Average70 °F58%30.06 "Hg
* Reported Sep 16 8:00 pm — Oct 1 8:00 pm, Constantine. Weather by CustomWeather, © 2020

Note: Actual official high and low records may vary slightly from our data, if they occured in-between our weather recording intervals... More about our weather records

Constantine Weather History for the Previous 24 Hours

Scroll right to see more
 ConditionsComfort  
Time TempWeatherWind HumidityBarometerVisibility
8:00 pm
Thu, Oct 1
64 °FClear.1 mph78%29.92 "Hg10 mi
7:00 pm70 °FPassing clouds.3 mph60%29.92 "HgN/A
6:00 pm73 °FScattered clouds.8 mph57%29.89 "HgN/A
5:00 pm79 °FScattered clouds.9 mph39%29.89 "HgN/A
4:00 pm79 °FScattered clouds.13 mph39%29.89 "HgN/A
3:00 pm81 °FScattered clouds.12 mph32%29.89 "HgN/A
2:00 pm82 °FScattered clouds.8 mph26%29.89 "HgN/A
1:00 pm79 °FScattered clouds.5 mph37%29.92 "HgN/A
12:00 pm77 °FPartly sunny.3 mph47%29.95 "HgN/A
11:00 am72 °FPartly sunny.3 mph61%29.95 "HgN/A
10:00 am68 °FPartly sunny.2 mph73%29.98 "HgN/A
8:00 am61 °FScattered clouds.No wind94%29.95 "Hg5 mi
7:00 am57 °FScattered clouds.2 mph94%29.95 "Hg5 mi
6:00 am57 °FPassing clouds.No wind94%29.95 "Hg5 mi
5:00 am59 °FClear.No wind94%29.95 "Hg10 mi
4:00 am61 °FClear.3 mph88%29.95 "Hg10 mi
3:00 am59 °FPassing clouds.3 mph94%29.95 "HgN/A
2:00 am61 °FPassing clouds.No wind94%29.98 "HgN/A
1:00 am61 °FPassing clouds.2 mph88%29.98 "HgN/A
12:00 am63 °FPassing clouds.No wind88%30.01 "HgN/A
11:00 pm
Wed, Sep 30
64 °FPassing clouds.3 mph88%30.01 "HgN/A
10:00 pm66 °FPassing clouds.2 mph83%30.04 "HgN/A
9:00 pm68 °FPassing clouds.6 mph78%30.04 "HgN/A
Weather by CustomWeather, © 2020

See weather overview